Simultaneous Nadir Overpasses (SNOs) Predictions

Prediction of SNOs between LANDSAT-8 and METOP-B Satellite Orbit:

Table of predicted SNOs for the next 14.0 days since TLE Epoch: 4/6/2018
Index Date (LANDSAT-8) Time (LANDSAT-8) Lat,Lon (LANDSAT-8) SZA (LANDSAT-8 ) Date (METOP-B) Time (METOP-B) Lat,Lon (METOP-B) SZA (METOP-B ) Distance(km) Time Diff (sec)
1 04/07/2018 15:08:09 81.13, -7.59 76.14 04/07/2018 15:07:10 81.13, -7.75 76.10 2.78 59
2 04/07/2018 15:57:35 -81.15, 160.33 103.83 04/07/2018 15:57:49 -81.15, 160.20 103.84 2.28 14
3 04/10/2018 10:42:22 81.15, 59.08 75.15 04/10/2018 10:41:30 81.14, 59.12 75.13 0.77 52
4 04/10/2018 11:31:48 -81.17,-132.98 104.82 04/10/2018 11:32:09 -81.17,-132.89 104.80 1.50 21
5 04/13/2018 06:16:36 81.14, 125.35 74.12 04/13/2018 06:15:52 81.13, 125.22 74.09 2.23 44
6 04/13/2018 07:06:02 -81.16, -66.68 105.85 04/13/2018 07:06:31 -81.16, -66.75 105.84 1.08 29
7 04/16/2018 01:50:48 81.15,-168.04 73.16 04/16/2018 01:50:11 81.15,-167.94 73.15 1.81 37
8 04/16/2018 02:40:14 -81.17, -0.05 106.81 04/16/2018 02:40:51 -81.16, -0.23 106.82 3.29 37
9 04/18/2018 21:25:02 81.13,-101.82 72.15 04/18/2018 21:24:33 81.14,-101.86 72.14 0.78 29




NCC Satellite Simultaneous Nadir Overpasses (SNOs) Prediction Service
